STARLINK-11210, 60116

Orbit data source: Space-Track

STARLINK-11210, 60116 is a payload satellite owned by SpaceX/Seattle (US) in LEO that was launched on Mon, 24 Jun 2024 UTC via an FALCON 9 launch vehicle from the Air Force Western Test Range (AFWTR). Payload-class satellites include a variety of spacecraft equipped with specific instruments for various scientific and technological missions. These include communications satellites like Starlink; space stations such as the ISS; scientific satellites like the Hubble; Earth observation satellites from companies like Planet Labs, Umbra, and HawkEye 360; GPS; miniature CubeSats for education and research; and military/defense satellites.

Loading next visibility...
Identifier
60116, 2024-118D
Orbit
LEO
Country
Flag of USUS
Related business
Manufacturer
SpaceX/Seattle
Mission
Operational Commercial Communications
Bus & Motor
STARLINK V2MD, Unknown motor
Mass
960 kg wet, ~910 kg dry
Launch date (UTC)
2024-06-24 (2 years ago)
Launch vehicle
FALCON 9
Launch site
Air Force Western Test Range (AFWTR)
Object type
Payload
Rocket body
Debris
Shape & HBR
Box + 2 Pan, 18.1 m
Radar Cross Section
36.964 m², Large (>1 m²)

Expand to show TLE details & history
Last TLE update: 13 hours ago

TLE from 13 hours ago
0 STARLINK-11210
1 60116U 24118D   26127.85315455  .00003049  00000-0  30019-4 0  9997
2 60116  53.1581 289.7506 0000755 104.5614 255.5488 15.69701591107283
Epoch: 2026-05-07T20:28Z
TLE epoch observation values (Epoch: 2026-05-07T20:28:32.553Z)
Latitude
0.00002°
Longitude
116.92164°
Altitude
360.793 km
Speed
7.694 km/s
True Right ascension
19h 19m 00s
True Declination
0° 00' 00"
Sunlit
Object was in full shadow at epoch
Visualization orbit readout
Latitude
Unknown
Longitude
Unknown
Altitude
Unknown
Speed
Unknown
Apparent Right ascension
Unknown
Apparent Declination
Unknown
Sunlit
N/A
Visualization observer readout
Local Sidereal Time
17:55:34
Azimuth
Unknown
Elevation
Unknown
Doppler factor
Unknown
Orbital elements
Apogee altitude
360.521 km
Perigee altitude
359.503 km
Semi-major axis
6,738.149 km
Eccentricity
0.00008
Inclination
53.1581°
RAAN
289.7506°
Arg. of periapsis
104.5614°
True anomaly
255.54042°
Mean anomaly
255.5488°
Eccentric anomaly
255.54461°
Mean motion
3.92403 °/min
Orbital period
91.74 mins
BSTAR
0.000030019
Loading maneuver chart data...
Computing Atmospheric mass density...
Loading historical data...
Loading historical data...
Loading historical data...
Loading historical data...
Loading historical data...
Loading historical data...
Loading historical data...

Documentation

Showing up to 5 results
|